| time (UTC) | temp F | wind direction | speed knots | gust knots | rain 1hr in | rain 24hr in | rain mn in | humidity % | barometer mb |
| 20260506044536 | 45 | 48 | 0.9 | 6.1 | 0.00 | 0.00 | 0.00 | 85 | 1012.9 |
| 20260506043030 | 45 | 41 | 0.9 | 6.1 | 0.00 | 0.00 | 0.00 | 85 | 1012.8 |
| 20260506041530 | 46 | 47 | 0.9 | 5.2 | 0.00 | 0.00 | 0.00 | 85 | 1012.7 |
| 20260506040036 | 46 | 19 | 0.9 | 5.2 | 0.00 | 0.00 | 0.00 | 85 | 1012.7 |
| 20260506034533 | 47 | 0 | 1.7 | 5.2 | 0.00 | 0.00 | 0.00 | 85 | 1012.7 |
| 20260506033030 | 47 | 41 | 1.7 | 6.1 | 0.00 | 0.00 | 0.00 | 86 | 1012.7 |
| 20260506031539 | 47 | 321 | 0.9 | 3.5 | 0.00 | 0.00 | 0.00 | 86 | 1012.7 |
| 20260506030031 | 47 | 22 | 0.9 | 2.6 | 0.00 | 0.00 | 0.00 | 86 | 1012.7 |
| 20260506024533 | 47 | 36 | 0.9 | 3.5 | 0.00 | 0.00 | 0.00 | 85 | 1012.8 |
| 20260506023050 | 47 | 25 | 0.0 | 4.3 | 0.00 | 0.00 | 0.00 | 84 | 1012.7 |
| 20260506021552 | 47 | 0 | 0.9 | 6.1 | 0.00 | 0.00 | 0.00 | 83 | 1012.7 |
| 20260506020032 | 48 | 58 | 0.0 | 3.5 | 0.00 | 0.00 | 0.00 | 82 | 1012.9 |
| 20260506014532 | 48 | 34 | 0.0 | 5.2 | 0.00 | 0.00 | 0.00 | 81 | 1012.9 |
| 20260506013035 | 48 | 72 | 0.9 | 7.0 | 0.00 | 0.00 | 0.00 | 80 | 1012.9 |
| 20260506011531 | 49 | 67 | 0.9 | 7.8 | 0.00 | 0.00 | 0.00 | 80 | 1013.0 |
| 20260506010032 | 49 | 36 | 2.6 | 7.0 | 0.00 | 0.00 | 0.00 | 80 | 1013.1 |
| 20260506004534 | 49 | 81 | 2.6 | 7.8 | 0.00 | 0.00 | 0.00 | 81 | 1012.9 |
| 20260506003032 | 49 | 300 | 1.7 | 6.1 | 0.00 | 0.00 | 0.00 | 82 | 1013.0 |
| 20260506001532 | 50 | 312 | 1.7 | 5.2 | 0.00 | 0.00 | 0.00 | 82 | 1013.0 |
| 20260506000030 | 50 | 96 | 0.9 | 6.1 | 0.00 | 0.00 | 0.00 | 82 | 1013.0 |
| 20260505234532 | 50 | 345 | 0.9 | 4.3 | 0.00 | 0.00 | 0.00 | 82 | 1013.0 |
| 20260505233035 | 51 | 0 | 0.0 | 4.3 | 0.00 | 0.00 | 0.00 | 82 | 1013.1 |
| 20260505231546 | 51 | 0 | 1.7 | 6.1 | 0.00 | 0.00 | 0.00 | 80 | 1012.9 |
| 20260505230030 | 52 | 65 | 0.0 | 6.1 | 0.00 | 0.00 | 0.00 | 78 | 1012.9 |
| 20260505224532 | 52 | 34 | 1.7 | 5.2 | 0.00 | 0.00 | 0.00 | 77 | 1012.9 |
| 20260505223031 | 52 | 14 | 0.9 | 5.2 | 0.00 | 0.00 | 0.00 | 77 | 1012.7 |
| 20260505221534 | 52 | 49 | 0.9 | 7.0 | 0.00 | 0.00 | 0.00 | 76 | 1012.7 |
| 20260505220033 | 52 | 50 | 2.6 | 6.1 | 0.00 | 0.00 | 0.00 | 76 | 1012.7 |
| 20260505214548 | 53 | 37 | 1.7 | 7.8 | 0.00 | 0.00 | 0.00 | 76 | 1012.8 |
| 20260505213038 | 53 | 33 | 0.9 | 7.0 | 0.00 | 0.00 | 0.00 | 76 | 1012.7 |
| 20260505211530 | 53 | 38 | 1.7 | 9.6 | 0.00 | 0.00 | 0.00 | 76 | 1012.5 |
| 20260505210031 | 53 | 45 | 0.0 | 4.3 | 0.00 | 0.00 | 0.00 | 76 | 1012.5 |
| 20260505204531 | 54 | 306 | 0.0 | 4.3 | 0.00 | 0.00 | 0.00 | 75 | 1012.4 |
| 20260505203050 | 54 | 0 | 0.9 | 5.2 | 0.00 | 0.00 | 0.00 | 75 | 1012.4 |
| 20260505201540 | 54 | 331 | 0.0 | 2.6 | 0.00 | 0.00 | 0.00 | 74 | 1012.4 |
| 20260505200032 | 54 | 314 | 0.9 | 3.5 | 0.00 | 0.00 | 0.00 | 74 | 1012.3 |
| 20260505194530 | 55 | 328 | 0.9 | 3.5 | 0.00 | 0.00 | 0.00 | 74 | 1012.2 |
| 20260505193033 | 55 | 321 | 0.9 | 4.3 | 0.00 | 0.00 | 0.00 | 73 | 1012.0 |
| 20260505191529 | 55 | 312 | 0.9 | 4.3 | 0.00 | 0.00 | 0.00 | 72 | 1011.9 |
| 20260505190034 | 55 | 339 | 0.0 | 2.6 | 0.00 | 0.00 | 0.00 | 73 | 1012.0 |
| 20260505184534 | 55 | 0 | 0.9 | 2.6 | 0.00 | 0.00 | 0.00 | 74 | 1011.9 |
| 20260505183029 | 56 | 313 | 0.0 | 2.6 | 0.00 | 0.00 | 0.00 | 73 | 1011.7 |
| 20260505181535 | 56 | 0 | 0.0 | 1.7 | 0.00 | 0.00 | 0.00 | 73 | 1011.6 |
| 20260505180029 | 56 | 0 | 0.9 | 2.6 | 0.00 | 0.00 | 0.00 | 73 | 1011.7 |
| 20260505174538 | 56 | 0 | 0.9 | 4.3 | 0.00 | 0.00 | 0.00 | 72 | 1011.8 |
| 20260505173030 | 57 | 306 | 0.9 | 5.2 | 0.00 | 0.00 | 0.00 | 71 | 1011.9 |
| 20260505171533 | 57 | 308 | 1.7 | 7.0 | 0.00 | 0.00 | 0.00 | 71 | 1011.9 |
| 20260505170036 | 57 | 332 | 1.7 | 6.1 | 0.00 | 0.00 | 0.00 | 71 | 1012.0 |
| 20260505164529 | 57 | 298 | 1.7 | 6.1 | 0.00 | 0.00 | 0.00 | 69 | 1012.0 |
| 20260505163034 | 57 | 120 | 0.9 | 4.3 | 0.00 | 0.00 | 0.00 | 68 | 1011.9 |
| 20260505161530 | 57 | 1 | 0.9 | 4.3 | 0.00 | 0.00 | 0.00 | 69 | 1012.0 |
| 20260505153035 | 57 | 1 | 0.0 | 4.3 | 0.00 | 0.00 | 0.00 | 70 | 1012.1 |
| 20260505151545 | 57 | 296 | 0.9 | 3.5 | 0.00 | 0.00 | 0.00 | 70 | 1012.1 |
| 20260505124532 | 56 | 0 | 0.9 | 4.3 | 0.00 | 0.00 | 0.00 | 72 | 1012.8 |
| 20260505123033 | 56 | 308 | 1.7 | 6.1 | 0.00 | 0.00 | 0.00 | 70 | 1012.7 |
| 20260505121531 | 55 | 321 | 0.9 | 7.0 | 0.00 | 0.00 | 0.00 | 73 | 1012.7 |
| 20260505120038 | 55 | 29 | 2.6 | 7.0 | 0.00 | 0.00 | 0.00 | 74 | 1012.9 |
| 20260505114530 | 54 | 316 | 1.7 | 7.0 | 0.00 | 0.00 | 0.00 | 77 | 1012.9 |
| 20260505113030 | 55 | 25 | 1.7 | 6.1 | 0.00 | 0.00 | 0.00 | 76 | 1012.9 |
| 20260505111532 | 54 | 32 | 2.6 | 7.0 | 0.00 | 0.00 | 0.00 | 77 | 1013.0 |
| 20260505101532 | 53 | 28 | 2.6 | 8.7 | 0.00 | 0.00 | 0.00 | 78 | 1013.2 |
| 20260505100034 | 53 | 72 | 2.6 | 7.8 | 0.00 | 0.00 | 0.00 | 79 | 1013.4 |
| 20260505094530 | 53 | 337 | 0.9 | 5.2 | 0.00 | 0.00 | 0.00 | 83 | 1013.4 |
| 20260505093040 | 52 | 58 | 1.7 | 7.8 | 0.00 | 0.00 | 0.00 | 83 | 1013.4 |
| 20260505091532 | 52 | 25 | 2.6 | 8.7 | 0.00 | 0.00 | 0.00 | 82 | 1013.6 |
| 20260505090038 | 52 | 72 | 3.5 | 8.7 | 0.00 | 0.00 | 0.00 | 82 | 1013.5 |
| 20260505084532 | 52 | 309 | 3.5 | 7.0 | 0.00 | 0.00 | 0.00 | 83 | 1013.4 |
| 20260505083033 | 53 | 29 | 3.5 | 7.8 | 0.00 | 0.00 | 0.00 | 82 | 1013.6 |
| 20260505081532 | 52 | 7 | 1.7 | 8.7 | 0.00 | 0.00 | 0.00 | 83 | 1013.6 |
| 20260505080030 | 53 | 13 | 2.6 | 10.4 | 0.00 | 0.00 | 0.00 | 82 | 1013.5 |
| 20260505074531 | 53 | 292 | 2.6 | 9.6 | 0.00 | 0.00 | 0.00 | 84 | 1013.5 |
| 20260505073037 | 52 | 330 | 1.7 | 7.0 | 0.00 | 0.00 | 0.00 | 86 | 1013.3 |
| 20260505071529 | 52 | 316 | 0.9 | 4.3 | 0.00 | 0.00 | 0.00 | 88 | 1013.5 |
| 20260505070032 | 51 | 299 | 0.9 | 4.3 | 0.00 | 0.00 | 0.00 | 89 | 1013.6 |
| 20260505064531 | 51 | 321 | 0.9 | 4.3 | 0.00 | 0.00 | 0.00 | 89 | 1013.6 |
| 20260505063038 | 50 | 34 | 0.9 | 5.2 | 0.00 | 0.00 | 0.00 | 90 | 1013.6 |
| 20260505061531 | 50 | 0 | 0.9 | 5.2 | 0.00 | 0.00 | 0.00 | 92 | 1013.5 |
| 20260505060034 | 50 | 0 | 0.0 | 2.6 | 0.00 | 0.00 | 0.00 | 93 | 1013.8 |
| 20260505054537 | 49 | 44 | 0.0 | 2.6 | 0.00 | 0.00 | 0.00 | 92 | 1013.5 |
| 20260505053041 | 48 | 18 | 0.9 | 3.5 | 0.00 | 0.00 | 0.00 | 93 | 1013.6 |